STARLINK-34541

Last updated on Sat Jul 19 2025 00:02:09 GMT+0000 (Coordinated Universal Time)

1 64771U 25147S 25199.58335648 -.01573884 00000+0 -10969-1 0 9995 2 64771 53.1569 256.8261 0000845 80.0423 348.0188 15.76791961 2691
UTC large
Height (km)
Speed (km/s)
/
Latitude / Longitude
Inclination (degrees)
Orbital Period (minutes)
Azimuth
Elevation
Range (km)
Doppler Factor

Next 0 passes for location: London (51.5072 / 0.1276)

Sorry there are no passes over London.